Location: Finnegan
(51.1333°N, 112.0833°W)
Time: 21:01:32
(UTC+00:00)

Envisat - Pass Details

Date: 06 December 2021
Orbit: 764 x 766 km, 98.2° (Epoch: 26 January)

Event Time Altitude Azimuth Distance (km) Brightness Sun altitude
Rises 14:15:43 0° 5° (N) 3,248 6.0 -9.1°
Reaches altitude 10° 14:18:35 10° 348° (NNW) 2,316 5.1 -8.7°
Maximum altitude 14:22:09 20° 304° (NW) 1,742 4.2 -8.2°
Drops below altitude 10° 14:25:42 10° 259° (W) 2,306 5.0 -7.7°
Sets 14:28:34 0° 243° (WSW) 3,227 5.9 -7.3°
